Retour au catalogue

STARLINK-30582

ActifCommunicationsVLEO
NORAD 58059·PAYLOAD·🇺🇸 United States

Lancé Oct 13, 2023 depuis Cape Canaveral Space Force Station

Loading…

Prochains Passages (prochaines 24 heures)

TLE

FraisSource: CelesTrak SupGP

Époque: Sep 14, 2026, 21:35 UTC

1 58059C 23158J   26257.89979167  .00040593  00000+0  14694-2 0  2577
2 58059  43.0046  38.1280 0002028 272.2304   9.5937 15.27575774    14

Suivez STARLINK-30582 en temps réel avec AllMySat

Download on the App Store